Regional Weather Roundup
Issued by NWS Charleston, SC

Current Version | Previous Version | Graphics & Text | Print | Product List | Glossary On
Versions: 1 2 3 4 5 6 7 8 9 10 11 12 13 14 15 16 17 18 19 20 21 22 23 24 25 26 27 28 29 30 31 32 33 34 35 36 37 38 39 40 41 42 43 44 45 46 47 48 49 50
000
ASUS42 KCHS 012112
RWRCHS

REGIONAL WEATHER ROUNDUP
NATIONAL WEATHER SERVICE CHARLESTON SC
500 PM EDT WED JUL 01 2015

NOTE: "FAIR" INDICATES FEW OR NO CLOUDS BELOW 12,000 FEET WITH NO
SIGNIFICANT WEATHER AND/OR OBSTRUCTIONS TO VISIBILITY.

NOT ALL STATIONS ARE QUALITY CONTROLLED BY THE NATIONAL
WEATHER SERVICE. USE DATA WITH CAUTION...ESPECIALLY
DEWPOINT OBSERVATIONS.

SCZ027-030-031-034>040-042>050-012200-
...SOUTHEAST SOUTH CAROLINA...

CITY           SKY/WX    TMP DP  RH WIND       PRES   REMARKS
N CHARLESTON   PTSUNNY   88  70  55 W9        29.98F HX  93
WATERFRONT PAR   N/A     87  72  60 W7        29.96S HX  93
MOUNT PLEASANT FAIR      88  70  55 SW8       29.98F HX  92
JOHNS ISLAND   FAIR      90  73  58 W10       29.98F HX  98
PINOPOLIS      NOT AVBL
MONCKS CORNER  FAIR      86  70  58 W6        29.97F HX  90
SUMMERVILLE    FAIR      88  73  62 SW5       29.98F HX  96
BEAUFORT MCAS  PTSUNNY   88  71  57 SW15      29.99F HX  94
BEAUFORT ARPT  FAIR      88  72  58 SW13G18   29.99F HX  94
HILTON HEAD IS MOSUNNY   88  70  55 W7        30.01F HX  92
WALTERBORO     MOCLDY    86  70  58 SW12      29.99S HX  90
ALLENDALE      FAIR      86  72  62 VRB7G13   29.99S HX  92

...SOUTHERN MIDLANDS AND PEE DEE...

CITY           SKY/WX    TMP DP  RH WIND       PRES   REMARKS
GEORGETOWN     NOT AVBL
KINGSTREE      NOT AVBL
ORANGEBURG     MOSUNNY   87  69  54 SW12      29.98S HX  91
BARNWELL       FAIR      88  72  58 SW8       29.99F HX  94
AIKEN          NOT AVBL
MANNING        MOCLDY    84  64  51 SW8       29.97S
COLUMBIA       CLOUDY    88  67  49 SW12      29.96S HX  91
SUMTER         MOSUNNY   86  70  58 SW8       29.94F HX  90
FLORENCE       MOSUNNY   86  70  58 SW9       29.95F HX  90
MYRTLE BEACH   PTSUNNY   88  68  51 W12       29.97F HX  91
N MYRTLE BEACH PTSUNNY   86  73  65 SW8       29.95F HX  93

$$

GAZ063-065-086>088-099>101-113>116-118-119-134>141-150-012200-
...SOUTHEAST GEORGIA...

CITY           SKY/WX    TMP DP  RH WIND       PRES   REMARKS
SAVANNAH ARPT  PTSUNNY   89  69  51 SW10      30.00F HX  93
HUNTER AAF     SUNNY     91  73  56 W12       29.97F HX  99
FORT STEWART   PTSUNNY   90  70  51 SW16      29.98F HX  96
STATESBORO     PTSUNNY   88  76  67 W6        30.01S HX  98
SYLVANIA       PTCLDY    88  74  61 SW6       30.01F HX  96
CLAXTON        MOCLDY    88  72  58 W7        30.00F HX  94

...CSRA...CENTRAL AND FAR SOUTHEAST GEORGIA...

CITY           SKY/WX    TMP DP  RH WIND       PRES   REMARKS
THOMSON        MOSUNNY   88  74  63 SW5       30.04F HX  96
AUGUSTA-BUSH   MOSUNNY   88  68  51 W12       29.98S HX  91
AUGUSTA-DANIEL MOSUNNY   87  69  54 CALM      30.00S HX  91
SWAINSBORO     FAIR      90  73  58 W7        30.02S HX  98
VIDALIA        CLOUDY    88  70  55 W12       30.02S HX  92
EASTMAN        FAIR      90  71  53 SW10      30.03F HX  96
HAZLEHURST     FAIR      90  70  51 SW7G17    30.01S HX  95
ALMA           SUNNY     90  67  46 W13G22    30.02F HX  93
WAYCROSS       PTSUNNY   94  73  50 W13       30.02F HX 103
JESUP          FAIR      93  72  49 W10       30.01F HX 100
BAXLEY         FAIR      91  70  49 W9G16     30.01F HX  97
BRUNSWICK      MOSUNNY   91  68  46 W12       30.02S HX  95
SAINT SIMONS   SUNNY     92  68  45 W13       30.01F HX  96

$$

SCZ027-028-034-036>038-045-046-048>050-GAZ119-141-012200-
...LAKE AND SUPPLEMENTAL COASTAL OBSERVATIONS...

STATION/POSITION TIME  TEMP    WIND        PRES    WAVE   SWELL
                       AIR SEA DIR/SP/G            HT/PER HT/PER/DIR
                 (UTC) (F)     (DEG/KT/KT) (MB)    (FT/S) (FT/S/D)
UPR LAKE MARION  NOT AVBL
WINYAH BAY       1945   85     230/  8     1014.0
LAKE MURRAY      2000   84     270/ 12/ 15 1014.2F
ACE BASIN NERRS  NOT AVBL
FORT PULASKI     2000   89 85  250/ 10/ 14 1016.7F
SAPELO ISLAND    2000   91     240/ 16     1016.0F

$$

ANZ835-935-AMZ111-154-330-350-352-354-370-450-454-472-012200-
...C-MAN AND BUOY OBSERVATIONS...

STATION/POSITION TIME  TEMP    WIND        PRES    WAVE   SWELL
                       AIR SEA DIR/SP/G            HT/PER HT/PER/DIR
                 (UTC) (F)     (DEG/KT/KT) (MB)    (FT/S) (FT/S/D)
BUOY 41004       2050   80 82  230/ 17/ 21 1015.1F   5/ 6   2/ 8
BUOY 41008       2050   81 79  210/ 12/ 14 1016.1F   2/ 8   2/110/ 8
FOLLY BEACH CMAN 2000   83     220/ 12/ 17 1015.8F
CAPERS NEARSHORE 2008   82     220/ 16/ 19 1015.7F
FRIPP NEARSHORE  2000   86     260/ 12/ 14 1015.9F


STATION/POSITION TIME  TEMP    WIND        PRES    WAVE   SWELL
                       AIR SEA DIR/SP/G            HT/PER HT/PER/DIR
                 (UTC) (F)     (DEG/KT/KT) (MB)    (FT/S) (FT/S/D)
5E ST. MARYS GA  2021      78                N/A     2/ 9
FRYING PAN BUOY  2050   80 80  220/ 16/ 19 1015.0F   5/ 6   2/120/ 8
BUOY 41025       2050   80 83  230/ 19/ 21 1013.6F   5/ 8   2/200/ 8
CAPE LOOKOUT NC  2000   82     230/ 13/ 17 1014.0F
BUOY 41002       2050   82 80  220/ 17/ 19 1018.2F   6/ 8   3/190/12
BUOY 41010       2020   83 85  240/ 10/ 12 1020.1F
ST AUGUSTINE FL  2100   87 75  240/  9/ 11 1018.7F


$$


USA.gov is the U.S. government's official web portal to all federal, state and local government web resources and services.